[[{"header":{"parameterUnit":"m.s-1","parameterCategory":1,"la1":30.2991,"la2":30.254,"lo1":-89.0895,"lo2":-89.0444,"dy":0.0017,"dx":0.0017,"nx":28,"ny":28,"refTime":"2023-11-14T09:00:00:Z","depth":0,"parameterNumber":2,"parameterNumberName":"U-component_of_WINDS"},"data":[0,0,0,0,0,0,0,0,0,0,0,0,0,0,0,0,0,0,0,0,0,0,0,0,0,0,0,0,0,0,0,0,0,0,0,0,0,0,0,0,0,0,0,0,0,0,0,0,0,0,0,0,0,0,0,0,0,0,-8.217,-8.2174,0,-8.2496,-8.2499,-8.2503,-8.2391,-8.2384,-8.2377,-8.237,-8.271,-8.2726,-8.2741,0,0,0,0,0,0,0,0,0,0,0,0,0,-8.146,-8.1473,-8.217,-8.2174,-8.2178,-8.2495,-8.2499,-8.2504,-8.2393,-8.2384,-8.2375,-8.2367,-8.2705,-8.2724,-8.2743,0,0,0,0,0,0,0,0,0,0,0,0,0,-8.1775,-8.1478,-8.2169,-8.2161,-8.2163,-8.2494,-8.25,-8.2505,-8.2395,-8.2384,-8.2373,-8.2363,-8.2699,-8.2722,-8.2745,-8.3106,0,0,-8.2817,-8.2827,0,0,0,0,0,0,0,0,-8.1757,-8.1801,-8.2158,-8.2162,-8.2165,-8.2392,-8.2373,-8.2707,-8.2397,-8.2307,-8.237,-8.2358,-8.2613,-8.2643,-8.2728,-8.3122,-8.3137,-8.2819,-8.2834,-8.2844,-8.285,0,0,0,0,0,0,0,-8.1736,-8.1787,-8.2299,-8.2163,-8.2168,-8.2143,-8.2176,-8.2436,-8.2517,-8.2314,-8.2307,-8.2346,-8.2613,-8.2706,-8.2735,-8.3142,-8.2819,-8.284,-8.2854,-8.2863,-8.3852,-8.3864,0,0,0,0,0,0,-8.1711,-8.1769,-8.2289,-8.2309,-8.193,-8.2165,-8.2201,-8.233,-8.2514,-8.2531,-8.2355,-8.234,-8.2671,-8.2708,-8.2747,-8.3185,-8.2844,-8.2866,-8.2879,-8.384,-8.3855,-8.3868,0,0,0,0,0,0,-8.1696,-8.1758,-8.2275,-8.2037,-8.2101,-8.2188,-8.2334,-8.2342,-8.2434,-8.2545,-8.2559,-8.2434,-8.2664,-8.2714,-8.3018,-8.3195,-8.2876,-8.2898,-8.3826,-8.3845,-8.3862,-8.4062,0,0,0,0,0,0,-8.1676,-8.1754,-8.189,-8.2041,-8.2114,-8.254,-8.2344,-8.2356,-8.2474,-8.2458,-8.2623,-8.264,-8.2659,-8.2984,-8.3042,-8.3222,-8.2916,-8.3811,-8.3834,-8.3856,-8.404,-8.4085,-8.4123,0,0,0,0,0,-8.1651,-8.1934,-8.1897,-8.1961,-8.2286,-8.255,-8.2592,-8.2607,-8.2489,-8.2629,-8.27,-8.2635,-8.3166,-8.3016,-8.308,-8.327,-8.38,-8.3828,-8.3854,-8.4022,-8.4076,-8.4123,0,0,0,0,0,0,-8.1803,-8.1953,-8.1915,-8.2254,-8.239,-8.253,-8.2706,-8.2663,-8.2837,-8.2814,-8.2827,-8.2865,-8.3179,-8.3254,-8.3084,-8.3631,-8.3466,-8.3507,-8.3571,-8.3624,-8.3665,-8.3642,-8.2936,0,0,0,0,0,-8.1875,-8.2075,-8.2196,-8.2485,-8.2554,-8.2619,-8.2734,-8.2734,-8.2876,-8.2934,-8.3027,-8.3169,-8.3368,-8.35,-8.3689,-8.405,-8.4087,-8.4212,-8.4254,-8.4287,-8.4325,-8.4526,-8.4584,-8.3958,-8.3957,-8.3957,0,0,-8.2028,-8.2135,-8.2261,-8.2518,-8.2623,-8.2833,-8.2668,-8.2896,-8.3053,-8.2969,-8.3263,-8.3336,-8.3496,-8.3832,-8.3984,-8.3904,-8.4505,-8.4322,-8.4348,-8.4367,-8.456,-8.4619,-8.4672,-8.3976,-8.3973,-8.397,0,0,-8.2415,-8.2514,-8.2766,-8.2875,-8.3036,-8.3077,-8.3138,-8.3286,-8.3332,-8.3626,-8.3569,-8.3756,-8.4098,-8.4215,-8.432,-8.4753,-8.4702,-8.4814,-8.5033,-8.5228,-8.5278,-8.5322,-8.5481,-8.5537,-8.485,-8.485,-8.4851,0,-8.2585,-8.2896,-8.2902,-8.3136,-8.3253,-8.3184,-8.3443,-8.3548,-8.3764,-8.3848,-8.3754,-8.4184,-8.4286,-8.465,-8.4756,-8.4841,-8.4915,-8.4797,-8.527,-8.5314,-8.5355,-8.5507,-8.5566,-8.4863,-8.4862,-8.486,-8.4859,0,-8.31,-8.3317,-8.3502,-8.3711,-8.3848,-8.4093,-8.4139,-8.4277,-8.4265,-8.4317,-8.462,-8.4741,-8.4955,-8.504,-8.5031,-8.5405,-8.5351,-8.5264,-8.5099,-8.5428,-8.5571,-8.5629,-8.4882,-8.4877,-8.4873,-8.487,0,0,-8.3593,-8.3802,-8.387,-8.3966,-8.4139,-8.4308,-8.4551,-8.4759,-8.488,-8.503,-8.5238,-8.5529,-8.545,-8.5569,-8.5572,-8.5743,-8.6085,-8.5636,-8.564,-8.5719,-8.651,-8.6577,-8.6644,-8.605,-8.6061,-8.6069,-8.6498,0,-8.3996,-8.4421,-8.4435,-8.4825,-8.5028,-8.4967,-8.5179,-8.531,-8.5366,-8.5548,-8.5609,-8.5818,-8.5695,-8.5767,-8.5934,-8.6008,-8.6244,-8.5976,-8.6247,-8.6257,-8.6213,-8.6718,-8.679,-8.7188,-8.6553,-8.6563,-8.6569,0,-8.4524,-8.4691,-8.5102,-8.5248,-8.5334,-8.5524,-8.5718,-8.5891,-8.604,-8.6068,-8.6202,-8.6181,-8.6433,-8.6256,-8.6607,-8.6424,-8.6536,-8.6589,-8.6605,-8.6634,-8.6436,-8.6765,-8.7315,-8.7377,-8.6657,-8.665,-8.6643,0,-8.4848,-8.5175,-8.5464,-8.5547,-8.5724,-8.586,-8.5941,-8.6078,-8.6204,-8.6373,-8.6455,-8.6652,-8.6762,-8.6916,-8.695,-8.6817,-8.7303,-8.7127,-8.7337,-8.7337,-8.7445,-8.7439,-8.8025,-8.751,-8.7509,-8.7508,-8.7507,0,-8.5299,-8.5554,-8.5612,-8.579,-8.6075,-8.6089,-8.6371,-8.6442,-8.6565,-8.6759,-8.6717,-8.69,-8.6931,-8.7122,-8.715,-8.7439,-8.7487,-8.7521,-8.7526,-8.7527,-8.7524,-8.7603,-8.7578,-8.7524,-8.7521,-8.7517,-8.7515,0,-8.5711,-8.5759,-8.607,-8.6213,-8.6255,-8.6459,-8.6582,-8.6754,-8.6804,-8.705,-8.7109,-8.719,-8.7413,-8.746,-8.7725,-8.7744,-8.8088,-8.8064,-8.8038,-8.8037,-8.8246,-8.8228,-8.8908,-8.9,-8.842,-8.8426,-8.843,0,-8.5998,-8.6192,-8.6355,-8.6481,-8.6568,-8.6771,-8.6898,-8.692,-8.7055,-8.724,-8.7392,-8.7609,-8.7785,-8.8145,-8.8229,-8.8433,-8.8416,-8.864,-8.8446,-8.8443,-8.8425,-8.8415,-8.8437,-8.8679,-8.8685,-8.869,-8.8694,0,-8.6504,-8.6518,-8.6702,-8.6897,-8.705,-8.7205,-8.7351,-8.7457,-8.75,-8.7654,-8.7881,-8.8017,-8.8287,-8.8506,-8.871,-8.8796,-8.8756,-8.8754,-8.8814,-8.8819,-8.8798,-8.8817,-8.8144,-8.8739,-8.8734,-8.8731,-8.8729,-8.8727,-8.6865,-8.7036,-8.7179,-8.7386,-8.7499,-8.7638,-8.7808,-8.788,-8.8068,-8.8289,-8.829,-8.854,-8.8686,-8.8956,-8.9054,-8.9252,-8.9182,-8.9268,-8.9291,-8.9313,-8.9334,-8.8763,-8.9288,-8.9287,-8.9286,-8.9285,-8.9284,0,-8.7372,-8.7461,-8.7652,-8.7859,-8.8024,-8.7966,-8.8127,-8.8269,-8.8488,-8.8627,-8.8801,-8.9064,-8.9276,-8.9377,-8.9588,-8.9727,-8.9714,-8.9782,-8.9775,-8.9796,-8.9382,-8.9311,-8.979,-8.979,-8.979,-8.9789,-8.9789,-8.9789,-8.7656,-8.7945,-8.7977,-8.8322,-8.8409,-8.8652,-8.8749,-8.8878,-8.8989,-8.9284,-8.946,-8.9523,-8.9649,-8.9869,-9.0063,-9.0087,-9.0169,-9.0248,-9.0264,-8.9876,-8.9825,-8.9776,-8.9709,-9.0264,-9.0265,-9.0662,-9.0666,-9.0668]},{"header":{"parameterUnit":"m.s-1","parameterCategory":1,"la1":30.2991,"la2":30.254,"lo1":-89.0895,"lo2":-89.0444,"dy":0.0017,"dx":0.0017,"nx":28,"ny":28,"refTime":"2023-11-14T09:00:00:Z","depth":0,"parameterNumber":3,"parameterNumberName":"V-component_of_WINDS"},"data":[0,0,0,0,0,0,0,0,0,0,0,0,0,0,0,0,0,0,0,0,0,0,0,0,0,0,0,0,0,0,0,0,0,0,0,0,0,0,0,0,0,0,0,0,0,0,0,0,0,0,0,0,0,0,0,0,0,0,-4.8033,-4.803,0,-4.7815,-4.7812,-4.781,-4.7646,-4.7644,-4.7643,-4.7641,-4.7412,-4.7407,-4.7403,0,0,0,0,0,0,0,0,0,0,0,0,0,-4.8299,-4.8295,-4.8033,-4.803,-4.8028,-4.7815,-4.7812,-4.7809,-4.7646,-4.7644,-4.7642,-4.7641,-4.7413,-4.7408,-4.7402,0,0,0,0,0,0,0,0,0,0,0,0,0,-4.8142,-4.8294,-4.8033,-4.7921,-4.7908,-4.7816,-4.7812,-4.7808,-4.7646,-4.7644,-4.7642,-4.764,-4.7415,-4.7408,-4.7401,-4.7402,0,0,-4.738,-4.7377,0,0,0,0,0,0,0,0,-4.8152,-4.8133,-4.794,-4.7928,-4.7914,-4.7755,-4.7822,-4.7672,-4.7647,-4.7746,-4.7641,-4.7639,-4.7528,-4.7511,-4.7475,-4.7391,-4.7381,-4.7379,-4.7375,-4.7372,-4.737,0,0,0,0,0,0,0,-4.8163,-4.8141,-4.7946,-4.7937,-4.7922,-4.7878,-4.7853,-4.7793,-4.7651,-4.7737,-4.7724,-4.7701,-4.752,-4.7482,-4.7468,-4.7378,-4.7379,-4.7373,-4.7369,-4.7366,-4.7277,-4.7279,0,0,0,0,0,0,-4.8192,-4.8151,-4.7953,-4.794,-4.803,-4.7875,-4.7847,-4.7808,-4.7652,-4.7626,-4.7703,-4.7694,-4.7495,-4.7477,-4.746,-4.7446,-4.7372,-4.7365,-4.7361,-4.7275,-4.7278,-4.728,0,0,0,0,0,0,-4.8198,-4.8176,-4.7962,-4.8042,-4.8012,-4.7873,-4.783,-4.7805,-4.7767,-4.7626,-4.76,-4.7691,-4.7493,-4.747,-4.7416,-4.7436,-4.7362,-4.7355,-4.7273,-4.7276,-4.7279,-4.7421,0,0,0,0,0,0,-4.8207,-4.8179,-4.818,-4.8044,-4.8008,-4.7926,-4.7832,-4.7803,-4.7756,-4.7742,-4.7608,-4.7583,-4.7489,-4.7428,-4.741,-4.7424,-4.735,-4.7271,-4.7275,-4.7278,-4.7414,-4.7429,-4.7441,0,0,0,0,0,-4.8217,-4.8229,-4.8181,-4.8158,-4.8007,-4.7928,-4.7907,-4.78,-4.7759,-4.7756,-4.7665,-4.7587,-4.7437,-4.7424,-4.7402,-4.7415,-4.7269,-4.7273,-4.7278,-4.7408,-4.7426,-4.7441,0,0,0,0,0,0,-4.837,-4.8209,-4.8154,-4.8123,-4.8041,-4.79,-4.7895,-4.7823,-4.7749,-4.7739,-4.7608,-4.7579,-4.7539,-4.7471,-4.746,-4.7404,-4.7343,-4.7343,-4.745,-4.7465,-4.7479,-4.7494,-4.7344,0,0,0,0,0,-4.8401,-4.8353,-4.8213,-4.8199,-4.816,-4.8035,-4.7997,-4.7921,-4.7829,-4.7793,-4.7698,-4.761,-4.7542,-4.75,-4.743,-4.7404,-4.737,-4.7402,-4.7415,-4.7427,-4.7428,-4.7404,-4.7415,-4.7294,-4.7294,-4.7294,0,0,-4.8463,-4.8369,-4.8346,-4.8227,-4.8154,-4.8103,-4.8007,-4.7958,-4.7918,-4.7785,-4.7729,-4.7656,-4.7548,-4.7508,-4.7485,-4.745,-4.7453,-4.7432,-4.7443,-4.7437,-4.7409,-4.7421,-4.7431,-4.7297,-4.7296,-4.7296,0,0,-4.8549,-4.8475,-4.8453,-4.8381,-4.8272,-4.8189,-4.8184,-4.8053,-4.8,-4.7942,-4.784,-4.7789,-4.7676,-4.7602,-4.755,-4.7606,-4.7529,-4.7586,-4.7656,-4.7634,-4.7643,-4.7651,-4.7667,-4.7675,-4.7588,-4.7589,-4.7589,0,-4.8639,-4.8561,-4.845,-4.8406,-4.8355,-4.8234,-4.8208,-4.8143,-4.8017,-4.7983,-4.7946,-4.78,-4.7719,-4.7657,-4.7671,-4.7634,-4.762,-4.76,-4.7652,-4.7658,-4.7664,-4.7677,-4.7684,-4.7596,-4.7595,-4.7594,-4.7594,0,-4.8675,-4.8623,-4.8617,-4.8499,-4.8447,-4.8413,-4.8293,-4.8254,-4.8183,-4.8102,-4.8041,-4.794,-4.7846,-4.7826,-4.7756,-4.7753,-4.7734,-4.7677,-4.7612,-4.7685,-4.7694,-4.7699,-4.7606,-4.7604,-4.7602,-4.76,0,0,-4.8852,-4.8671,-4.8671,-4.8614,-4.8484,-4.8439,-4.8398,-4.8307,-4.8273,-4.819,-4.8148,-4.8055,-4.8,-4.7941,-4.7861,-4.7842,-4.7887,-4.7786,-4.7781,-4.7805,-4.7872,-4.7914,-4.7922,-4.7837,-4.7838,-4.7838,-4.788,0,-4.8915,-4.8837,-4.8734,-4.8688,-4.8635,-4.8518,-4.8481,-4.8395,-4.8318,-4.8259,-4.8172,-4.8107,-4.8041,-4.8004,-4.7981,-4.7887,-4.7898,-4.7883,-4.7793,-4.7792,-4.7822,-4.7928,-4.7973,-4.8017,-4.7884,-4.7884,-4.7885,0,-4.8979,-4.8902,-4.8852,-4.8722,-4.8696,-4.8666,-4.8571,-4.8519,-4.8417,-4.8361,-4.8295,-4.8209,-4.8154,-4.8099,-4.802,-4.8012,-4.7968,-4.7917,-4.7916,-4.7901,-4.7841,-4.7913,-4.8029,-4.8035,-4.7891,-4.789,-4.789,0,-4.9109,-4.8992,-4.8946,-4.8901,-4.875,-4.873,-4.8666,-4.8563,-4.8513,-4.843,-4.8396,-4.8308,-4.8259,-4.8191,-4.8082,-4.8052,-4.8013,-4.7949,-4.7962,-4.7965,-4.7957,-4.7959,-4.8065,-4.7936,-4.7936,-4.7935,-4.7935,0,-4.9188,-4.9161,-4.9001,-4.8973,-4.8937,-4.8818,-4.8785,-4.871,-4.8618,-4.857,-4.8463,-4.8419,-4.8279,-4.8218,-4.8132,-4.8077,-4.8056,-4.8007,-4.7984,-4.8015,-4.8021,-4.7983,-4.7976,-4.7937,-4.7937,-4.7936,-4.7936,0,-4.9326,-4.9219,-4.916,-4.9022,-4.8986,-4.8966,-4.8845,-4.8811,-4.8727,-4.8667,-4.8646,-4.8513,-4.8435,-4.832,-4.8207,-4.8149,-4.8106,-4.8071,-4.8141,-4.8126,-4.8144,-4.8143,-4.8228,-4.8231,-4.8104,-4.8105,-4.8107,0,-4.9383,-4.9359,-4.9219,-4.9179,-4.9119,-4.9058,-4.9006,-4.8887,-4.8837,-4.8718,-4.8697,-4.8611,-4.8536,-4.8415,-4.8307,-4.8218,-4.8178,-4.8214,-4.8164,-4.8194,-4.8173,-4.8175,-4.817,-4.8225,-4.8227,-4.8229,-4.823,0,-4.9494,-4.9441,-4.9373,-4.9285,-4.9228,-4.9153,-4.9072,-4.9045,-4.8907,-4.8856,-4.8776,-4.8718,-4.8601,-4.8516,-4.8412,-4.8342,-4.8261,-4.8247,-4.8244,-4.8274,-4.8314,-4.8289,-4.817,-4.8245,-4.8243,-4.8242,-4.8241,-4.8241,-4.959,-4.9562,-4.9457,-4.9384,-4.9311,-4.9237,-4.9197,-4.9108,-4.904,-4.8937,-4.887,-4.8792,-4.8686,-4.8539,-4.8473,-4.8407,-4.8374,-4.8371,-4.837,-4.837,-4.838,-4.8328,-4.8388,-4.8388,-4.8387,-4.8387,-4.8386,0,-4.9691,-4.9618,-4.9552,-4.9442,-4.9384,-4.9316,-4.9222,-4.9176,-4.911,-4.9019,-4.8947,-4.8852,-4.8768,-4.8652,-4.8558,-4.8528,-4.8488,-4.8507,-4.8506,-4.849,-4.8417,-4.8427,-4.854,-4.854,-4.854,-4.854,-4.854,-4.854,-4.9737,-4.9685,-4.962,-4.9528,-4.9454,-4.9378,-4.933,-4.926,-4.9187,-4.9086,-4.9016,-4.8942,-4.884,-4.8737,-4.8655,-4.8623,-4.8591,-4.8621,-4.8577,-4.851,-4.8496,-4.8483,-4.8491,-4.8616,-4.8616,-4.8654,-4.8655,-4.8655]}]]